Time,TemperatureF,DewpointF,PressureIn,WindDirection,WindDirectionDegrees,WindSpeedMPH,WindSpeedGustMPH,Humidity,HourlyPrecipIn,Conditions,Clouds,dailyrainin,SoftwareType,DateUTC
2013-03-13 00:00:00,32.1,29.8,30.10,WSW,250,5.0,6.0,91,0.00,,---,0.00,VWS V14.01,2013-03-13 04:00:00,
2013-03-13 00:05:00,32.1,29.8,30.10,WSW,242,6.0,7.0,91,0.00,,---,0.00,VWS V14.01,2013-03-13 04:05:00,
2013-03-13 00:10:00,32.1,29.8,30.10,WSW,245,5.0,7.0,91,0.00,,---,0.00,VWS V14.01,2013-03-13 04:10:00,
2013-03-13 00:15:00,32.2,29.6,30.10,WSW,252,5.0,8.0,90,0.00,,---,0.00,VWS V14.01,2013-03-13 04:15:00,
2013-03-13 00:20:00,32.2,29.6,30.10,West,267,4.0,8.0,90,0.00,,---,0.00,VWS V14.01,2013-03-13 04:20:00,
2013-03-13 00:25:00,32.3,29.7,30.10,WSW,248,7.0,9.0,90,0.00,,---,0.00,VWS V14.01,2013-03-13 04:25:00,
2013-03-13 00:30:00,32.3,29.7,30.10,WSW,253,8.0,9.0,90,0.00,,---,0.00,VWS V14.01,2013-03-13 04:30:00,
2013-03-13 00:35:00,32.4,29.8,30.10,WSW,257,6.0,9.0,90,0.00,,---,0.00,VWS V14.01,2013-03-13 04:35:00,
2013-03-13 00:40:00,32.4,29.8,30.10,West,263,4.0,9.0,90,0.00,,---,0.00,VWS V14.01,2013-03-13 04:40:00,
2013-03-13 00:45:00,32.4,29.8,30.09,West,259,6.0,10.0,90,0.00,,---,0.00,VWS V14.01,2013-03-13 04:45:00,
2013-03-13 00:50:00,32.4,29.8,30.10,West,277,4.0,10.0,90,0.00,,---,0.00,VWS V14.01,2013-03-13 04:50:00,
2013-03-13 00:55:00,32.3,29.7,30.10,West,266,7.0,10.0,90,0.00,,---,0.00,VWS V14.01,2013-03-13 04:55:00,
2013-03-13 01:00:00,32.4,29.8,30.09,WSW,257,4.0,5.0,90,0.00,,---,0.00,VWS V14.01,2013-03-13 05:00:00,
2013-03-13 01:05:00,32.3,29.7,30.09,West,273,4.0,8.0,90,0.00,,---,0.00,VWS V14.01,2013-03-13 05:05:00,
2013-03-13 01:10:00,32.4,29.8,30.09,West,279,10.0,10.0,90,0.00,,---,0.00,VWS V14.01,2013-03-13 05:10:00,
2013-03-13 01:15:00,32.4,29.8,30.09,WNW,298,6.0,10.0,90,0.00,,---,0.00,VWS V14.01,2013-03-13 05:15:00,
2013-03-13 01:20:00,32.4,29.8,30.09,WNW,288,5.0,10.0,90,0.00,,---,0.00,VWS V14.01,2013-03-13 05:20:00,
2013-03-13 01:25:00,32.3,29.1,30.09,WNW,301,8.0,15.0,88,0.00,,---,0.00,VWS V14.01,2013-03-13 05:25:00,
2013-03-13 01:30:00,32.3,28.6,30.09,West,272,11.0,16.0,86,0.00,,---,0.00,VWS V14.01,2013-03-13 05:30:00,
2013-03-13 01:35:00,32.2,28.8,30.09,West,267,10.0,16.0,87,0.00,,---,0.00,VWS V14.01,2013-03-13 05:35:00,
2013-03-13 01:40:00,32.2,28.8,30.09,WNW,283,11.0,16.0,87,0.00,,---,0.00,VWS V14.01,2013-03-13 05:40:00,
2013-03-13 01:45:00,32.2,28.8,30.09,West,280,9.0,16.0,87,0.00,,---,0.00,VWS V14.01,2013-03-13 05:45:00,
2013-03-13 01:50:00,32.3,28.9,30.09,West,271,10.0,16.0,87,0.00,,---,0.00,VWS V14.01,2013-03-13 05:50:00,
2013-03-13 01:55:00,32.3,28.9,30.09,West,267,8.0,16.0,87,0.00,,---,0.00,VWS V14.01,2013-03-13 05:55:00,
2013-03-13 02:00:00,32.3,28.9,30.09,West,277,9.0,12.0,87,0.00,,---,0.00,VWS V14.01,2013-03-13 06:00:00,
2013-03-13 02:05:00,32.4,28.7,30.09,West,274,11.0,12.0,86,0.00,,---,0.00,VWS V14.01,2013-03-13 06:05:00,
2013-03-13 02:10:00,32.4,28.4,30.09,West,274,10.0,14.0,85,0.00,,---,0.00,VWS V14.01,2013-03-13 06:10:00,
2013-03-13 02:15:00,32.6,28.0,30.09,West,276,13.0,15.0,83,0.00,,---,0.00,VWS V14.01,2013-03-13 06:15:00,
2013-03-13 02:20:00,32.7,28.1,30.09,WNW,290,7.0,16.0,83,0.00,,---,0.00,VWS V14.01,2013-03-13 06:20:00,
2013-03-13 02:25:00,32.7,27.8,30.09,WNW,283,8.0,16.0,82,0.00,,---,0.00,VWS V14.01,2013-03-13 06:25:00,
2013-03-13 02:30:00,32.7,27.8,30.09,WNW,291,10.0,16.0,82,0.00,,---,0.00,VWS V14.01,2013-03-13 06:30:00,
2013-03-13 02:35:00,32.6,28.0,30.09,WNW,288,7.0,16.0,83,0.00,,---,0.00,VWS V14.01,2013-03-13 06:35:00,
2013-03-13 02:41:00,32.1,28.1,30.09,West,278,7.0,18.0,85,0.00,,---,0.00,VWS V14.01,2013-03-13 06:41:00,
2013-03-13 02:46:00,31.7,27.7,30.09,WNW,285,8.0,18.0,85,0.00,,---,0.00,VWS V14.01,2013-03-13 06:46:00,
2013-03-13 02:51:00,31.6,27.3,30.09,WNW,290,7.0,18.0,84,0.00,,---,0.00,VWS V14.01,2013-03-13 06:51:00,
2013-03-13 02:56:00,31.6,27.3,30.09,West,269,11.0,18.0,84,0.00,,---,0.00,VWS V14.01,2013-03-13 06:56:00,
2013-03-13 03:00:00,31.6,27.0,30.09,WNW,284,13.0,18.0,83,0.00,,---,0.00,VWS V14.01,2013-03-13 07:00:00,
2013-03-13 03:01:00,31.6,27.0,30.09,WNW,283,8.0,13.0,83,0.00,,---,0.00,VWS V14.01,2013-03-13 07:01:00,
2013-03-13 03:06:00,31.6,27.0,30.09,WNW,300,10.0,13.0,83,0.00,,---,0.00,VWS V14.01,2013-03-13 07:06:00,
2013-03-13 03:11:00,31.5,27.2,30.09,NW,304,6.0,13.0,84,0.00,,---,0.00,VWS V14.01,2013-03-13 07:11:00,
2013-03-13 03:16:00,31.4,26.8,30.09,WNW,283,12.0,14.0,83,0.00,,---,0.00,VWS V14.01,2013-03-13 07:16:00,
2013-03-13 03:21:00,31.3,27.0,30.09,WNW,293,10.0,17.0,84,0.00,,---,0.00,VWS V14.01,2013-03-13 07:21:00,
2013-03-13 03:26:00,30.8,27.1,30.10,NW,306,10.0,19.0,86,0.00,,---,0.00,VWS V14.01,2013-03-13 07:26:00,
2013-03-13 03:31:00,30.3,26.9,30.10,WNW,294,14.0,19.0,87,0.00,,---,0.00,VWS V14.01,2013-03-13 07:31:00,
2013-03-13 03:36:00,29.8,25.3,30.10,West,280,21.0,23.0,83,0.00,,---,0.00,VWS V14.01,2013-03-13 07:36:00,
2013-03-13 03:41:00,29.6,23.9,30.10,WNW,290,23.0,23.0,79,0.00,,---,0.00,VWS V14.01,2013-03-13 07:41:00,
2013-03-13 03:46:00,29.5,23.2,30.10,NW,309,22.0,28.0,77,0.00,,---,0.00,VWS V14.01,2013-03-13 07:46:00,
2013-03-13 03:51:00,29.5,22.9,30.10,NW,311,19.0,28.0,76,0.00,,---,0.00,VWS V14.01,2013-03-13 07:51:00,
2013-03-13 03:56:00,29.4,23.4,30.10,WNW,295,11.0,28.0,78,0.00,,---,0.00,VWS V14.01,2013-03-13 07:56:00,
2013-03-13 04:00:00,29.3,22.4,30.10,WNW,295,14.0,28.0,75,0.00,,---,0.00,VWS V14.01,2013-03-13 08:00:00,
2013-03-13 04:01:00,29.2,22.0,30.10,WNW,283,19.0,23.0,74,0.00,,---,0.00,VWS V14.01,2013-03-13 08:01:00,
2013-03-13 04:06:00,29.1,21.2,30.10,NW,304,13.0,23.0,72,0.00,,---,0.00,VWS V14.01,2013-03-13 08:06:00,
2013-03-13 04:11:00,28.9,21.4,30.11,WNW,298,17.0,23.0,73,0.00,,---,0.00,VWS V14.01,2013-03-13 08:11:00,
2013-03-13 04:16:00,28.8,20.3,30.11,NW,326,13.0,23.0,70,0.00,,---,0.00,VWS V14.01,2013-03-13 08:16:00,
2013-03-13 04:21:00,28.6,20.1,30.11,WNW,301,10.0,23.0,70,0.00,,---,0.00,VWS V14.01,2013-03-13 08:21:00,
2013-03-13 04:26:00,28.6,20.7,30.11,NW,308,9.0,23.0,72,0.00,,---,0.00,VWS V14.01,2013-03-13 08:26:00,
2013-03-13 04:31:00,28.3,19.5,30.11,NW,308,15.0,23.0,69,0.00,,---,0.00,VWS V14.01,2013-03-13 08:31:00,
2013-03-13 04:36:00,28.2,19.0,30.11,West,281,8.0,24.0,68,0.00,,---,0.00,VWS V14.01,2013-03-13 08:36:00,
2013-03-13 04:41:00,28.0,18.8,30.11,WNW,293,17.0,24.0,68,0.00,,---,0.00,VWS V14.01,2013-03-13 08:41:00,
2013-03-13 04:46:00,27.8,19.6,30.11,WNW,297,12.0,24.0,71,0.00,,---,0.00,VWS V14.01,2013-03-13 08:46:00,
2013-03-13 04:51:00,27.7,19.5,30.11,NW,304,13.0,24.0,71,0.00,,---,0.00,VWS V14.01,2013-03-13 08:51:00,
2013-03-13 04:56:00,27.5,19.4,30.11,WNW,297,6.0,24.0,71,0.00,,---,0.00,VWS V14.01,2013-03-13 08:56:00,
2013-03-13 05:00:00,27.5,19.4,30.11,WNW,298,16.0,24.0,71,0.00,,---,0.00,VWS V14.01,2013-03-13 09:00:00,
2013-03-13 05:01:00,27.5,20.0,30.11,NW,314,6.0,15.0,73,0.00,,---,0.00,VWS V14.01,2013-03-13 09:01:00,
2013-03-13 05:06:00,27.4,19.6,30.11,NW,308,12.0,15.0,72,0.00,,---,0.00,VWS V14.01,2013-03-13 09:06:00,
2013-03-13 05:11:00,27.4,20.2,30.12,NW,304,8.0,15.0,74,0.00,,---,0.00,VWS V14.01,2013-03-13 09:11:00,
2013-03-13 05:16:00,27.3,19.8,30.12,NW,307,15.0,24.0,73,0.00,,---,0.00,VWS V14.01,2013-03-13 09:16:00,
2013-03-13 05:21:00,27.3,19.8,30.12,WNW,300,7.0,24.0,73,0.00,,---,0.00,VWS V14.01,2013-03-13 09:21:00,
2013-03-13 05:26:00,27.2,19.7,30.12,NW,311,6.0,24.0,73,0.00,,---,0.00,VWS V14.01,2013-03-13 09:26:00,
2013-03-13 05:31:00,27.1,19.3,30.12,WNW,301,8.0,24.0,72,0.00,,---,0.00,VWS V14.01,2013-03-13 09:31:00,
2013-03-13 05:36:00,27.1,19.6,30.12,NNW,337,7.0,24.0,73,0.00,,---,0.00,VWS V14.01,2013-03-13 09:36:00,
2013-03-13 05:42:00,27.0,19.5,30.12,WNW,297,4.0,24.0,73,0.00,,---,0.00,VWS V14.01,2013-03-13 09:42:00,
2013-03-13 05:47:00,27.0,19.2,30.13,WNW,297,5.0,24.0,72,0.00,,---,0.00,VWS V14.01,2013-03-13 09:47:00,
2013-03-13 05:52:00,27.1,19.3,30.13,WNW,290,10.0,24.0,72,0.00,,---,0.00,VWS V14.01,2013-03-13 09:52:00,
2013-03-13 05:57:00,27.2,19.7,30.13,NW,307,13.0,24.0,73,0.00,,---,0.00,VWS V14.01,2013-03-13 09:57:00,
2013-03-13 06:00:00,27.2,19.4,30.13,WNW,297,12.0,24.0,72,0.00,,---,0.00,VWS V14.01,2013-03-13 10:00:00,
2013-03-13 06:02:00,27.2,19.4,30.13,West,281,15.0,21.0,72,0.00,,---,0.00,VWS V14.01,2013-03-13 10:02:00,
2013-03-13 06:07:00,27.1,19.6,30.13,WNW,298,14.0,21.0,73,0.00,,---,0.00,VWS V14.01,2013-03-13 10:07:00,
2013-03-13 06:12:00,27.0,19.8,30.14,WNW,299,13.0,21.0,74,0.00,,---,0.00,VWS V14.01,2013-03-13 10:12:00,
2013-03-13 06:17:00,27.0,20.1,30.14,West,273,10.0,21.0,75,0.00,,---,0.00,VWS V14.01,2013-03-13 10:17:00,
2013-03-13 06:22:00,26.9,19.7,30.14,WNW,295,10.0,21.0,74,0.00,,---,0.00,VWS V14.01,2013-03-13 10:22:00,
2013-03-13 06:27:00,26.9,20.0,30.14,WNW,295,13.0,21.0,75,0.00,,---,0.00,VWS V14.01,2013-03-13 10:27:00,
2013-03-13 06:32:00,26.9,20.0,30.15,WNW,290,15.0,21.0,75,0.00,,---,0.00,VWS V14.01,2013-03-13 10:32:00,
2013-03-13 06:37:00,26.8,20.3,30.15,WNW,287,10.0,21.0,76,0.00,,---,0.00,VWS V14.01,2013-03-13 10:37:00,
2013-03-13 06:42:00,26.6,19.4,30.15,WNW,291,16.0,21.0,74,0.00,,---,0.00,VWS V14.01,2013-03-13 10:42:00,
2013-03-13 06:47:00,26.4,18.9,30.15,WNW,297,16.0,21.0,73,0.00,,---,0.00,VWS V14.01,2013-03-13 10:47:00,
2013-03-13 06:52:00,26.2,19.4,30.15,WNW,295,7.0,21.0,75,0.00,,---,0.00,VWS V14.01,2013-03-13 10:52:00,
2013-03-13 06:57:00,25.9,20.3,30.15,WNW,291,12.0,21.0,79,0.00,,---,0.00,VWS V14.01,2013-03-13 10:57:00,
2013-03-13 07:00:00,25.7,20.7,30.16,NW,305,11.0,21.0,81,0.00,,---,0.00,VWS V14.01,2013-03-13 11:00:00,
2013-03-13 07:02:00,25.5,20.8,30.16,WNW,285,12.0,16.0,82,0.00,,---,0.00,VWS V14.01,2013-03-13 11:02:00,
2013-03-13 07:07:00,25.5,21.1,30.16,WNW,283,10.0,16.0,83,0.00,,---,0.00,VWS V14.01,2013-03-13 11:07:00,
2013-03-13 07:12:00,25.4,20.7,30.16,West,276,6.0,17.0,82,0.00,,---,0.00,VWS V14.01,2013-03-13 11:12:00,
2013-03-13 07:17:00,25.4,20.7,30.16,WSW,255,8.0,17.0,82,0.00,,---,0.00,VWS V14.01,2013-03-13 11:17:00,
2013-03-13 07:22:00,25.4,21.0,30.16,WNW,297,7.0,17.0,83,0.00,,---,0.00,VWS V14.01,2013-03-13 11:22:00,
2013-03-13 07:27:00,25.5,20.2,30.16,WNW,287,12.0,18.0,80,0.00,,---,0.00,VWS V14.01,2013-03-13 11:27:00,
2013-03-13 07:32:00,25.5,19.9,30.16,WNW,302,10.0,18.0,79,0.00,,---,0.00,VWS V14.01,2013-03-13 11:32:00,
2013-03-13 07:37:00,25.6,19.7,30.16,WNW,293,9.0,19.0,78,0.00,,---,0.00,VWS V14.01,2013-03-13 11:37:00,
2013-03-13 07:42:00,25.6,20.0,30.16,West,272,17.0,19.0,79,0.00,,---,0.00,VWS V14.01,2013-03-13 11:42:00,
2013-03-13 07:47:00,25.4,19.5,30.17,West,278,12.0,19.0,78,0.00,,---,0.00,VWS V14.01,2013-03-13 11:47:00,
2013-03-13 07:52:00,25.5,19.6,30.17,WNW,294,11.0,20.0,78,0.00,,---,0.00,VWS V14.01,2013-03-13 11:52:00,
2013-03-13 07:57:00,25.5,19.9,30.17,West,280,9.0,20.0,79,0.00,,---,0.00,VWS V14.01,2013-03-13 11:57:00,
2013-03-13 08:00:00,25.5,19.9,30.17,West,278,11.0,20.0,79,0.00,,---,0.00,VWS V14.01,2013-03-13 12:00:00,
2013-03-13 08:02:00,25.6,19.7,30.17,WNW,293,9.0,19.0,78,0.00,,---,0.00,VWS V14.01,2013-03-13 12:02:00,
2013-03-13 08:07:00,25.7,18.9,30.17,WNW,293,14.0,22.0,75,0.00,,---,0.00,VWS V14.01,2013-03-13 12:07:00,
2013-03-13 08:12:00,25.8,19.0,30.17,WNW,290,10.0,22.0,75,0.00,,---,0.00,VWS V14.01,2013-03-13 12:12:00,
2013-03-13 08:17:00,25.9,19.4,30.18,WNW,299,12.0,22.0,76,0.00,,---,0.00,VWS V14.01,2013-03-13 12:17:00,
2013-03-13 08:22:00,25.9,19.4,30.18,WNW,297,16.0,22.0,76,0.00,,---,0.00,VWS V14.01,2013-03-13 12:22:00,
2013-03-13 08:27:00,25.9,19.4,30.18,WNW,302,14.0,22.0,76,0.00,,---,0.00,VWS V14.01,2013-03-13 12:27:00,
2013-03-13 08:32:00,26.1,19.3,30.18,WNW,287,11.0,22.0,75,0.00,,---,0.00,VWS V14.01,2013-03-13 12:32:00,
2013-03-13 08:38:00,26.1,19.9,30.18,WNW,288,13.0,22.0,77,0.00,,---,0.00,VWS V14.01,2013-03-13 12:38:00,
2013-03-13 08:43:00,26.0,19.5,30.18,West,281,13.0,22.0,76,0.00,,---,0.00,VWS V14.01,2013-03-13 12:43:00,
2013-03-13 08:48:00,26.0,19.8,30.18,WNW,284,5.0,22.0,77,0.00,,---,0.00,VWS V14.01,2013-03-13 12:48:00,
2013-03-13 08:53:00,26.0,19.8,30.19,West,276,10.0,22.0,77,0.00,,---,0.00,VWS V14.01,2013-03-13 12:53:00,
2013-03-13 08:58:00,25.9,19.7,30.19,NW,309,16.0,22.0,77,0.00,,---,0.00,VWS V14.01,2013-03-13 12:58:00,
2013-03-13 09:00:00,25.9,19.4,30.19,WNW,290,11.0,22.0,76,0.00,,---,0.00,VWS V14.01,2013-03-13 13:00:00,
2013-03-13 09:03:00,25.9,19.7,30.19,West,278,12.0,16.0,77,0.00,,---,0.00,VWS V14.01,2013-03-13 13:03:00,
2013-03-13 09:08:00,26.2,20.3,30.19,WNW,299,13.0,17.0,78,0.00,,---,0.00,VWS V14.01,2013-03-13 13:08:00,
2013-03-13 09:13:00,26.0,20.1,30.20,WNW,294,9.0,18.0,78,0.00,,---,0.00,VWS V14.01,2013-03-13 13:13:00,
2013-03-13 09:18:00,25.9,20.0,30.20,WNW,283,10.0,18.0,78,0.00,,---,0.00,VWS V14.01,2013-03-13 13:18:00,
2013-03-13 09:23:00,25.8,20.2,30.20,WNW,298,10.0,18.0,79,0.00,,---,0.00,VWS V14.01,2013-03-13 13:23:00,
2013-03-13 09:28:00,25.5,20.8,30.21,WNW,293,11.0,18.0,82,0.00,,---,0.00,VWS V14.01,2013-03-13 13:28:00,
2013-03-13 09:33:00,25.2,21.0,30.21,West,271,8.0,18.0,84,0.00,,---,0.00,VWS V14.01,2013-03-13 13:33:00,
2013-03-13 09:38:00,25.1,21.2,30.21,WNW,293,7.0,18.0,85,0.00,,---,0.00,VWS V14.01,2013-03-13 13:38:00,
2013-03-13 09:43:00,25.0,21.1,30.21,West,267,13.0,18.0,85,0.00,,---,0.00,VWS V14.01,2013-03-13 13:43:00,
2013-03-13 09:48:00,24.9,21.3,30.22,West,280,11.0,18.0,86,0.00,,---,0.00,VWS V14.01,2013-03-13 13:48:00,
2013-03-13 09:53:00,25.1,21.8,30.22,WNW,297,9.0,18.0,87,0.00,,---,0.00,VWS V14.01,2013-03-13 13:53:00,
2013-03-13 09:58:00,25.3,21.4,30.22,West,267,14.0,18.0,85,0.00,,---,0.00,VWS V14.01,2013-03-13 13:58:00,
2013-03-13 10:00:00,25.3,21.1,30.22,West,276,10.0,18.0,84,0.00,,---,0.00,VWS V14.01,2013-03-13 14:00:00,
2013-03-13 10:03:00,25.5,20.8,30.22,West,277,11.0,17.0,82,0.00,,---,0.00,VWS V14.01,2013-03-13 14:03:00,
2013-03-13 10:08:00,25.6,20.3,30.23,West,274,13.0,17.0,80,0.00,,---,0.00,VWS V14.01,2013-03-13 14:08:00,
2013-03-13 10:13:00,25.8,21.1,30.23,West,272,10.0,17.0,82,0.00,,---,0.00,VWS V14.01,2013-03-13 14:13:00,
2013-03-13 10:18:00,26.0,20.7,30.23,West,276,12.0,17.0,80,0.00,,---,0.00,VWS V14.01,2013-03-13 14:18:00,
2013-03-13 10:23:00,26.0,20.7,30.23,WNW,287,8.0,17.0,80,0.00,,---,0.00,VWS V14.01,2013-03-13 14:23:00,
2013-03-13 10:28:00,26.1,21.1,30.23,West,276,13.0,17.0,81,0.00,,---,0.00,VWS V14.01,2013-03-13 14:28:00,
2013-03-13 10:33:00,26.2,21.5,30.24,West,270,13.0,17.0,82,0.00,,---,0.00,VWS V14.01,2013-03-13 14:33:00,
2013-03-13 10:38:00,25.9,21.5,30.24,West,274,13.0,18.0,83,0.00,,---,0.00,VWS V14.01,2013-03-13 14:38:00,
2013-03-13 10:43:00,25.6,22.0,30.24,West,272,11.0,18.0,86,0.00,,---,0.00,VWS V14.01,2013-03-13 14:43:00,
2013-03-13 10:48:00,25.6,22.0,30.24,West,271,9.0,18.0,86,0.00,,---,0.00,VWS V14.01,2013-03-13 14:48:00,
2013-03-13 10:53:00,26.0,21.6,30.24,West,270,16.0,18.0,83,0.00,,---,0.00,VWS V14.01,2013-03-13 14:53:00,
2013-03-13 10:58:00,26.3,21.6,30.25,West,277,13.0,18.0,82,0.00,,---,0.00,VWS V14.01,2013-03-13 14:58:00,
2013-03-13 11:00:00,26.4,21.7,30.25,West,279,13.0,18.0,82,0.00,,---,0.00,VWS V14.01,2013-03-13 15:00:00,
2013-03-13 11:03:00,26.9,22.1,30.25,West,271,11.0,17.0,82,0.00,,---,0.00,VWS V14.01,2013-03-13 15:03:00,
2013-03-13 11:08:00,26.9,21.6,30.25,West,280,18.0,21.0,80,0.00,,---,0.00,VWS V14.01,2013-03-13 15:08:00,
2013-03-13 11:13:00,26.8,21.5,30.25,West,273,13.0,21.0,80,0.00,,---,0.00,VWS V14.01,2013-03-13 15:13:00,
2013-03-13 11:18:00,26.5,21.5,30.25,West,264,13.0,21.0,81,0.00,,---,0.00,VWS V14.01,2013-03-13 15:18:00,
2013-03-13 11:23:00,26.5,21.5,30.26,WNW,283,15.0,21.0,81,0.00,,---,0.00,VWS V14.01,2013-03-13 15:23:00,
2013-03-13 11:28:00,26.6,21.6,30.26,WNW,283,7.0,21.0,81,0.00,,---,0.00,VWS V14.01,2013-03-13 15:28:00,
2013-03-13 11:33:00,26.8,22.0,30.26,WNW,297,12.0,21.0,82,0.00,,---,0.00,VWS V14.01,2013-03-13 15:33:00,
2013-03-13 11:38:00,27.1,20.9,30.26,WNW,300,7.0,21.0,77,0.00,,---,0.00,VWS V14.01,2013-03-13 15:38:00,
2013-03-13 11:43:00,27.5,21.2,30.26,NW,305,6.0,21.0,77,0.00,,---,0.00,VWS V14.01,2013-03-13 15:43:00,
2013-03-13 11:48:00,27.6,21.0,30.27,NW,307,13.0,21.0,76,0.00,,---,0.00,VWS V14.01,2013-03-13 15:48:00,
2013-03-13 11:53:00,27.8,20.9,30.27,NW,304,11.0,21.0,75,0.00,,---,0.00,VWS V14.01,2013-03-13 15:53:00,
2013-03-13 11:58:00,27.8,20.6,30.27,WNW,297,5.0,21.0,74,0.00,,---,0.00,VWS V14.01,2013-03-13 15:58:00,
2013-03-13 12:00:00,27.9,21.0,30.27,WNW,295,9.0,21.0,75,0.00,,---,0.00,VWS V14.01,2013-03-13 16:00:00,
2013-03-13 12:03:00,27.9,21.3,30.27,West,269,9.0,16.0,76,0.00,,---,0.00,VWS V14.01,2013-03-13 16:03:00,
2013-03-13 12:08:00,27.8,20.6,30.27,West,269,18.0,18.0,74,0.00,,---,0.00,VWS V14.01,2013-03-13 16:08:00,
2013-03-13 12:13:00,27.7,20.2,30.28,WNW,283,13.0,22.0,73,0.00,,---,0.00,VWS V14.01,2013-03-13 16:13:00,
2013-03-13 12:18:00,27.6,20.7,30.28,NW,307,8.0,22.0,75,0.00,,---,0.00,VWS V14.01,2013-03-13 16:18:00,
2013-03-13 12:23:00,27.8,20.9,30.28,West,271,9.0,22.0,75,0.00,,---,0.00,VWS V14.01,2013-03-13 16:23:00,
2013-03-13 12:28:00,27.7,20.8,30.28,WNW,285,12.0,22.0,75,0.00,,---,0.00,VWS V14.01,2013-03-13 16:28:00,
2013-03-13 12:33:00,27.7,21.1,30.29,WNW,298,14.0,22.0,76,0.00,,---,0.00,VWS V14.01,2013-03-13 16:33:00,
2013-03-13 12:38:00,27.8,20.6,30.29,NW,309,12.0,22.0,74,0.00,,---,0.00,VWS V14.01,2013-03-13 16:38:00,
2013-03-13 12:43:00,28.0,21.4,30.29,West,279,13.0,22.0,76,0.00,,---,0.00,VWS V14.01,2013-03-13 16:43:00,
2013-03-13 12:48:00,27.8,20.6,30.29,West,271,15.0,22.0,74,0.00,,---,0.00,VWS V14.01,2013-03-13 16:48:00,
2013-03-13 12:54:00,28.0,21.1,30.29,WNW,293,8.0,22.0,75,0.00,,---,0.00,VWS V14.01,2013-03-13 16:54:00,
2013-03-13 12:59:00,28.2,21.0,30.29,WNW,291,11.0,22.0,74,0.00,,---,0.00,VWS V14.01,2013-03-13 16:59:00,
2013-03-13 13:00:00,28.2,21.0,30.29,WNW,293,12.0,22.0,74,0.00,,---,0.00,VWS V14.01,2013-03-13 17:00:00,
2013-03-13 13:04:00,28.3,20.8,30.29,West,271,7.0,15.0,73,0.00,,---,0.00,VWS V14.01,2013-03-13 17:04:00,
2013-03-13 13:09:00,28.3,20.8,30.30,WNW,287,13.0,15.0,73,0.00,,---,0.00,VWS V14.01,2013-03-13 17:09:00,
2013-03-13 13:14:00,28.0,21.7,30.30,WNW,283,7.0,18.0,77,0.00,,---,0.00,VWS V14.01,2013-03-13 17:14:00,
2013-03-13 13:19:00,27.2,22.1,30.30,WNW,285,17.0,23.0,81,0.00,,---,0.00,VWS V14.01,2013-03-13 17:19:00,
2013-03-13 13:24:00,27.0,21.7,30.31,WNW,290,13.0,23.0,80,0.00,,---,0.00,VWS V14.01,2013-03-13 17:24:00,
2013-03-13 13:29:00,27.3,22.2,30.31,West,276,10.0,23.0,81,0.00,,---,0.00,VWS V14.01,2013-03-13 17:29:00,
2013-03-13 13:34:00,27.4,21.8,30.31,WNW,293,13.0,23.0,79,0.00,,---,0.00,VWS V14.01,2013-03-13 17:34:00,
2013-03-13 13:39:00,27.3,21.7,30.31,WNW,293,12.0,23.0,79,0.00,,---,0.00,VWS V14.01,2013-03-13 17:39:00,
2013-03-13 13:44:00,27.5,21.5,30.31,West,270,9.0,23.0,78,0.00,,---,0.00,VWS V14.01,2013-03-13 17:44:00,
2013-03-13 13:49:00,27.7,21.8,30.31,West,280,13.0,23.0,78,0.00,,---,0.00,VWS V14.01,2013-03-13 17:49:00,
2013-03-13 13:54:00,28.0,21.7,30.31,West,277,16.0,23.0,77,0.00,,---,0.00,VWS V14.01,2013-03-13 17:54:00,
2013-03-13 13:59:00,27.7,21.8,30.32,WNW,294,8.0,23.0,78,0.00,,---,0.00,VWS V14.01,2013-03-13 17:59:00,
2013-03-13 14:00:00,27.7,21.8,30.31,WNW,302,10.0,23.0,78,0.00,,---,0.00,VWS V14.01,2013-03-13 18:00:00,
2013-03-13 14:04:00,27.8,20.9,30.31,WNW,294,14.0,20.0,75,0.00,,---,0.00,VWS V14.01,2013-03-13 18:04:00,
2013-03-13 14:09:00,28.0,21.1,30.31,NW,312,9.0,20.0,75,0.00,,---,0.00,VWS V14.01,2013-03-13 18:09:00,
2013-03-13 14:14:00,28.0,20.8,30.31,NW,311,13.0,21.0,74,0.00,,---,0.00,VWS V14.01,2013-03-13 18:14:00,
2013-03-13 14:19:00,28.5,21.6,30.32,West,277,11.0,21.0,75,0.00,,---,0.00,VWS V14.01,2013-03-13 18:19:00,
2013-03-13 14:24:00,28.6,21.1,30.31,NW,309,8.0,21.0,73,0.00,,---,0.00,VWS V14.01,2013-03-13 18:24:00,
2013-03-13 14:29:00,28.7,21.8,30.32,NW,318,16.0,21.0,75,0.00,,---,0.00,VWS V14.01,2013-03-13 18:29:00,
2013-03-13 14:34:00,28.1,20.6,30.32,NW,304,14.0,21.0,73,0.00,,---,0.00,VWS V14.01,2013-03-13 18:34:00,
2013-03-13 14:39:00,28.0,21.4,30.32,WNW,299,12.0,21.0,76,0.00,,---,0.00,VWS V14.01,2013-03-13 18:39:00,
2013-03-13 14:44:00,28.4,21.2,30.32,WNW,293,11.0,21.0,74,0.00,,---,0.00,VWS V14.01,2013-03-13 18:44:00,
2013-03-13 14:49:00,28.7,20.8,30.32,WNW,291,14.0,22.0,72,0.00,,---,0.00,VWS V14.01,2013-03-13 18:49:00,
2013-03-13 14:54:00,28.9,21.0,30.32,West,277,11.0,22.0,72,0.00,,---,0.00,VWS V14.01,2013-03-13 18:54:00,
2013-03-13 14:59:00,28.8,21.2,30.32,West,281,16.0,22.0,73,0.00,,---,0.00,VWS V14.01,2013-03-13 18:59:00,
2013-03-13 15:00:00,28.8,21.2,30.32,West,281,16.0,22.0,73,0.00,,---,0.00,VWS V14.01,2013-03-13 19:00:00,
2013-03-13 15:04:00,28.0,22.0,30.32,WNW,298,12.0,21.0,78,0.00,,---,0.00,VWS V14.01,2013-03-13 19:04:00,
2013-03-13 15:09:00,27.7,22.0,30.32,WNW,295,12.0,21.0,79,0.00,,---,0.00,VWS V14.01,2013-03-13 19:09:00,
2013-03-13 15:14:00,28.1,22.1,30.32,WNW,289,9.0,21.0,78,0.00,,---,0.00,VWS V14.01,2013-03-13 19:14:00,
2013-03-13 15:19:00,28.4,21.2,30.32,NW,310,12.0,21.0,74,0.00,,---,0.00,VWS V14.01,2013-03-13 19:19:00,
2013-03-13 15:24:00,28.8,22.2,30.32,NW,314,11.0,21.0,76,0.00,,---,0.00,VWS V14.01,2013-03-13 19:24:00,
2013-03-13 15:29:00,28.8,21.6,30.32,WNW,299,10.0,21.0,74,0.00,,---,0.00,VWS V14.01,2013-03-13 19:29:00,
2013-03-13 15:34:00,28.3,22.3,30.32,WNW,295,13.0,21.0,78,0.00,,---,0.00,VWS V14.01,2013-03-13 19:34:00,
2013-03-13 15:39:00,28.8,21.9,30.32,WNW,285,11.0,21.0,75,0.00,,---,0.00,VWS V14.01,2013-03-13 19:39:00,
2013-03-13 15:44:00,29.1,21.2,30.32,NW,304,13.0,21.0,72,0.00,,---,0.00,VWS V14.01,2013-03-13 19:44:00,
2013-03-13 15:49:00,29.2,21.0,30.33,WNW,299,14.0,21.0,71,0.00,,---,0.00,VWS V14.01,2013-03-13 19:49:00,
2013-03-13 15:54:00,29.2,20.3,30.33,WNW,301,15.0,21.0,69,0.00,,---,0.00,VWS V14.01,2013-03-13 19:54:00,
2013-03-13 15:59:00,29.3,19.7,30.32,WNW,299,7.0,15.0,67,0.00,,---,0.00,VWS V14.01,2013-03-13 19:59:00,
2013-03-13 16:00:00,29.3,19.7,30.32,WNW,294,12.0,21.0,67,0.00,,---,0.00,VWS V14.01,2013-03-13 20:00:00,
2013-03-13 16:04:00,29.2,19.6,30.33,NW,307,9.0,15.0,67,0.00,,---,0.00,VWS V14.01,2013-03-13 20:04:00,
2013-03-13 16:09:00,29.1,20.2,30.33,NW,304,13.0,16.0,69,0.00,,---,0.00,VWS V14.01,2013-03-13 20:09:00,
2013-03-13 16:14:00,29.1,20.9,30.33,WNW,285,10.0,17.0,71,0.00,,---,0.00,VWS V14.01,2013-03-13 20:14:00,
2013-03-13 16:19:00,29.0,21.8,30.33,West,272,13.0,17.0,74,0.00,,---,0.00,VWS V14.01,2013-03-13 20:19:00,
2013-03-13 16:24:00,29.2,21.3,30.33,WNW,301,7.0,17.0,72,0.00,,---,0.00,VWS V14.01,2013-03-13 20:24:00,
2013-03-13 16:29:00,29.1,21.2,30.33,NW,307,18.0,19.0,72,0.00,,---,0.00,VWS V14.01,2013-03-13 20:29:00,
2013-03-13 16:34:00,28.5,21.6,30.33,WNW,287,6.0,19.0,75,0.00,,---,0.00,VWS V14.01,2013-03-13 20:34:00,
2013-03-13 16:39:00,28.6,21.7,30.33,West,276,10.0,19.0,75,0.00,,---,0.00,VWS V14.01,2013-03-13 20:39:00,
2013-03-13 16:44:00,29.3,21.7,30.33,WNW,298,10.0,19.0,73,0.00,,---,0.00,VWS V14.01,2013-03-13 20:44:00,
2013-03-13 16:49:00,29.2,21.6,30.33,WNW,283,18.0,19.0,73,0.00,,---,0.00,VWS V14.01,2013-03-13 20:49:00,
2013-03-13 16:54:00,28.9,22.0,30.34,WNW,293,11.0,19.0,75,0.00,,---,0.00,VWS V14.01,2013-03-13 20:54:00,
2013-03-13 16:59:00,28.9,22.6,30.34,WNW,300,17.0,17.0,77,0.00,,---,0.00,VWS V14.01,2013-03-13 20:59:00,
2013-03-13 17:00:00,28.9,22.6,30.34,WNW,283,8.0,19.0,77,0.00,,---,0.00,VWS V14.01,2013-03-13 21:00:00,
2013-03-13 17:04:00,28.9,22.6,30.34,West,276,12.0,18.0,77,0.00,,---,0.00,VWS V14.01,2013-03-13 21:04:00,
2013-03-13 17:09:00,29.0,22.4,30.34,WNW,290,12.0,18.0,76,0.00,,---,0.00,VWS V14.01,2013-03-13 21:09:00,
2013-03-13 17:14:00,29.4,21.8,30.34,WNW,285,10.0,18.0,73,0.00,,---,0.00,VWS V14.01,2013-03-13 21:14:00,
2013-03-13 17:19:00,29.4,22.1,30.34,WNW,295,17.0,18.0,74,0.00,,---,0.00,VWS V14.01,2013-03-13 21:19:00,
2013-03-13 17:24:00,29.2,22.3,30.34,WNW,283,6.0,18.0,75,0.00,,---,0.00,VWS V14.01,2013-03-13 21:24:00,
2013-03-13 17:30:00,29.2,22.6,30.35,WNW,291,7.0,18.0,76,0.00,,---,0.00,VWS V14.01,2013-03-13 21:30:00,
2013-03-13 17:35:00,29.1,22.8,30.35,West,277,18.0,19.0,77,0.00,,---,0.00,VWS V14.01,2013-03-13 21:35:00,
2013-03-13 17:40:00,28.6,23.2,30.35,WNW,287,12.0,19.0,80,0.00,,---,0.00,VWS V14.01,2013-03-13 21:40:00,
2013-03-13 17:45:00,28.4,23.3,30.35,WNW,285,12.0,19.0,81,0.00,,---,0.00,VWS V14.01,2013-03-13 21:45:00,
2013-03-13 17:50:00,28.3,23.5,30.35,NW,314,9.0,20.0,82,0.00,,---,0.00,VWS V14.01,2013-03-13 21:50:00,
2013-03-13 17:55:00,28.2,24.0,30.36,WNW,287,6.0,20.0,84,0.00,,---,0.00,VWS V14.01,2013-03-13 21:55:00,
2013-03-13 18:00:00,28.5,24.0,30.36,WSW,253,11.0,11.0,83,0.00,,---,0.00,VWS V14.01,2013-03-13 22:00:00,
2013-03-13 18:05:00,28.6,23.2,30.36,WNW,302,8.0,15.0,80,0.00,,---,0.00,VWS V14.01,2013-03-13 22:05:00,
2013-03-13 18:10:00,28.9,23.8,30.36,West,276,13.0,15.0,81,0.00,,---,0.00,VWS V14.01,2013-03-13 22:10:00,
2013-03-13 18:15:00,29.0,23.6,30.36,WNW,297,11.0,17.0,80,0.00,,---,0.00,VWS V14.01,2013-03-13 22:15:00,
2013-03-13 18:20:00,29.0,23.6,30.36,West,280,7.0,17.0,80,0.00,,---,0.00,VWS V14.01,2013-03-13 22:20:00,
2013-03-13 18:25:00,28.9,23.8,30.36,NW,307,11.0,17.0,81,0.00,,---,0.00,VWS V14.01,2013-03-13 22:25:00,
2013-03-13 18:30:00,29.0,24.2,30.36,West,280,9.0,17.0,82,0.00,,---,0.00,VWS V14.01,2013-03-13 22:30:00,
2013-03-13 18:35:00,29.2,23.8,30.36,West,272,10.0,17.0,80,0.00,,---,0.00,VWS V14.01,2013-03-13 22:35:00,
2013-03-13 18:40:00,29.2,23.5,30.36,WNW,291,11.0,17.0,79,0.00,,---,0.00,VWS V14.01,2013-03-13 22:40:00,
2013-03-13 18:45:00,29.4,22.8,30.36,WNW,297,9.0,17.0,76,0.00,,---,0.00,VWS V14.01,2013-03-13 22:45:00,
2013-03-13 18:50:00,29.5,22.6,30.36,WNW,298,7.0,17.0,75,0.00,,---,0.00,VWS V14.01,2013-03-13 22:50:00,
2013-03-13 18:55:00,29.7,22.8,30.36,WNW,303,6.0,17.0,75,0.00,,---,0.00,VWS V14.01,2013-03-13 22:55:00,
2013-03-13 19:00:00,29.7,22.4,30.36,NW,304,11.0,14.0,74,0.00,,---,0.00,VWS V14.01,2013-03-13 23:00:00,
2013-03-13 19:05:00,29.7,22.1,30.36,WNW,293,6.0,14.0,73,0.00,,---,0.00,VWS V14.01,2013-03-13 23:05:00,
2013-03-13 19:10:00,29.7,22.1,30.36,WNW,299,8.0,14.0,73,0.00,,---,0.00,VWS V14.01,2013-03-13 23:10:00,
2013-03-13 19:15:00,29.8,21.6,30.37,WNW,290,15.0,16.0,71,0.00,,---,0.00,VWS V14.01,2013-03-13 23:15:00,
2013-03-13 19:20:00,29.8,21.2,30.37,NW,318,10.0,17.0,70,0.00,,---,0.00,VWS V14.01,2013-03-13 23:20:00,
2013-03-13 19:25:00,29.8,21.6,30.37,WNW,285,11.0,17.0,71,0.00,,---,0.00,VWS V14.01,2013-03-13 23:25:00,
2013-03-13 19:30:00,29.8,21.6,30.37,WNW,284,6.0,17.0,71,0.00,,---,0.00,VWS V14.01,2013-03-13 23:30:00,
2013-03-13 19:35:00,29.8,21.2,30.37,WNW,285,9.0,18.0,70,0.00,,---,0.00,VWS V14.01,2013-03-13 23:35:00,
2013-03-13 19:40:00,29.8,21.2,30.37,WNW,301,9.0,18.0,70,0.00,,---,0.00,VWS V14.01,2013-03-13 23:40:00,
2013-03-13 19:45:00,29.8,21.2,30.37,WNW,297,9.0,18.0,70,0.00,,---,0.00,VWS V14.01,2013-03-13 23:45:00,
2013-03-13 19:50:00,29.8,21.6,30.37,WNW,297,5.0,18.0,71,0.00,,---,0.00,VWS V14.01,2013-03-13 23:50:00,
2013-03-13 19:55:00,29.7,21.8,30.37,WNW,293,8.0,18.0,72,0.00,,---,0.00,VWS V14.01,2013-03-13 23:55:00,
2013-03-13 20:00:00,29.6,21.7,30.37,WNW,295,5.0,7.0,72,0.00,,---,0.00,VWS V14.01,2013-03-14 00:00:00,
2013-03-13 20:05:00,29.6,21.7,30.37,NW,304,6.0,11.0,72,0.00,,---,0.00,VWS V14.01,2013-03-14 00:05:00,
2013-03-13 20:10:00,29.5,21.6,30.37,WNW,287,4.0,11.0,72,0.00,,---,0.00,VWS V14.01,2013-03-14 00:10:00,
2013-03-13 20:15:00,29.4,21.5,30.37,West,278,9.0,11.0,72,0.00,,---,0.00,VWS V14.01,2013-03-14 00:15:00,
2013-03-13 20:20:00,29.4,21.8,30.37,West,276,6.0,11.0,73,0.00,,---,0.00,VWS V14.01,2013-03-14 00:20:00,
2013-03-13 20:25:00,29.4,22.1,30.37,West,270,5.0,11.0,74,0.00,,---,0.00,VWS V14.01,2013-03-14 00:25:00,
2013-03-13 20:30:00,29.3,22.1,30.38,West,276,4.0,11.0,74,0.00,,---,0.00,VWS V14.01,2013-03-14 00:30:00,
2013-03-13 20:35:00,29.4,22.1,30.38,West,278,5.0,11.0,74,0.00,,---,0.00,VWS V14.01,2013-03-14 00:35:00,
2013-03-13 20:40:00,29.4,21.8,30.38,WNW,282,8.0,11.0,73,0.00,,---,0.00,VWS V14.01,2013-03-14 00:40:00,
2013-03-13 20:45:00,29.5,21.9,30.38,WNW,283,6.0,11.0,73,0.00,,---,0.00,VWS V14.01,2013-03-14 00:45:00,
2013-03-13 20:50:00,29.4,22.1,30.38,WNW,282,4.0,11.0,74,0.00,,---,0.00,VWS V14.01,2013-03-14 00:50:00,
2013-03-13 20:55:00,29.3,22.4,30.38,West,278,6.0,11.0,75,0.00,,---,0.00,VWS V14.01,2013-03-14 00:55:00,
2013-03-13 21:00:00,29.1,22.2,30.38,WNW,283,7.0,8.0,75,0.00,,---,0.00,VWS V14.01,2013-03-14 01:00:00,
2013-03-13 21:05:00,29.0,22.1,30.38,WNW,283,7.0,8.0,75,0.00,,---,0.00,VWS V14.01,2013-03-14 01:05:00,
2013-03-13 21:10:00,29.0,22.1,30.38,West,276,8.0,10.0,75,0.00,,---,0.00,VWS V14.01,2013-03-14 01:10:00,
2013-03-13 21:15:00,29.0,22.1,30.38,West,274,6.0,10.0,75,0.00,,---,0.00,VWS V14.01,2013-03-14 01:15:00,
2013-03-13 21:20:00,28.8,21.9,30.38,West,262,6.0,10.0,75,0.00,,---,0.00,VWS V14.01,2013-03-14 01:20:00,
2013-03-13 21:25:00,28.7,21.8,30.38,West,266,6.0,10.0,75,0.00,,---,0.00,VWS V14.01,2013-03-14 01:25:00,
2013-03-13 21:30:00,28.6,21.7,30.38,West,264,6.0,10.0,75,0.00,,---,0.00,VWS V14.01,2013-03-14 01:30:00,
2013-03-13 21:35:00,28.5,21.9,30.38,West,271,5.0,10.0,76,0.00,,---,0.00,VWS V14.01,2013-03-14 01:35:00,
2013-03-13 21:40:00,28.4,21.5,30.38,West,277,5.0,10.0,75,0.00,,---,0.00,VWS V14.01,2013-03-14 01:40:00,
2013-03-13 21:45:00,28.4,21.5,30.38,WSW,250,6.0,10.0,75,0.00,,---,0.00,VWS V14.01,2013-03-14 01:45:00,
2013-03-13 21:50:00,28.4,21.5,30.38,West,263,5.0,10.0,75,0.00,,---,0.00,VWS V14.01,2013-03-14 01:50:00,
2013-03-13 21:55:00,28.3,21.7,30.38,West,272,5.0,10.0,76,0.00,,---,0.00,VWS V14.01,2013-03-14 01:55:00,
2013-03-13 22:00:00,28.2,21.6,30.38,West,259,7.0,10.0,76,0.00,,---,0.00,VWS V14.01,2013-03-14 02:00:00,
2013-03-13 22:01:00,28.2,21.6,30.38,West,271,6.0,7.0,76,0.00,,---,0.00,VWS V14.01,2013-03-14 02:01:00,
2013-03-13 22:05:00,28.2,21.6,30.38,West,267,7.0,7.0,76,0.00,,---,0.00,VWS V14.01,2013-03-14 02:05:00,
2013-03-13 22:10:00,28.1,21.5,30.38,WSW,257,7.0,8.0,76,0.00,,---,0.00,VWS V14.01,2013-03-14 02:10:00,
2013-03-13 22:16:00,28.0,21.4,30.38,West,277,5.0,8.0,76,0.00,,---,0.00,VWS V14.01,2013-03-14 02:16:00,
2013-03-13 22:21:00,28.0,21.4,30.38,West,262,8.0,10.0,76,0.00,,---,0.00,VWS V14.01,2013-03-14 02:21:00,
2013-03-13 22:26:00,28.1,21.5,30.39,West,264,7.0,10.0,76,0.00,,---,0.00,VWS V14.01,2013-03-14 02:26:00,
2013-03-13 22:31:00,28.0,21.4,30.39,West,276,6.0,10.0,76,0.00,,---,0.00,VWS V14.01,2013-03-14 02:31:00,
2013-03-13 22:36:00,28.0,21.4,30.39,West,264,7.0,10.0,76,0.00,,---,0.00,VWS V14.01,2013-03-14 02:36:00,
2013-03-13 22:41:00,27.8,21.5,30.39,West,273,8.0,10.0,77,0.00,,---,0.00,VWS V14.01,2013-03-14 02:41:00,
2013-03-13 22:46:00,27.7,21.4,30.39,West,266,7.0,10.0,77,0.00,,---,0.00,VWS V14.01,2013-03-14 02:46:00,
2013-03-13 22:51:00,27.6,21.4,30.39,West,264,7.0,10.0,77,0.00,,---,0.00,VWS V14.01,2013-03-14 02:51:00,
2013-03-13 22:56:00,27.6,21.4,30.40,West,264,6.0,10.0,77,0.00,,---,0.00,VWS V14.01,2013-03-14 02:56:00,
2013-03-13 23:00:00,27.5,21.2,30.40,West,259,6.0,10.0,77,0.00,,---,0.00,VWS V14.01,2013-03-14 03:00:00,
2013-03-13 23:01:00,27.4,21.5,30.39,West,271,6.0,7.0,78,0.00,,---,0.00,VWS V14.01,2013-03-14 03:01:00,
2013-03-13 23:06:00,27.4,21.5,30.40,West,262,6.0,7.0,78,0.00,,---,0.00,VWS V14.01,2013-03-14 03:06:00,
2013-03-13 23:11:00,27.2,21.3,30.40,West,264,5.0,7.0,78,0.00,,---,0.00,VWS V14.01,2013-03-14 03:11:00,
2013-03-13 23:16:00,27.1,21.2,30.40,West,270,4.0,7.0,78,0.00,,---,0.00,VWS V14.01,2013-03-14 03:16:00,
2013-03-13 23:21:00,27.1,21.2,30.40,West,263,4.0,7.0,78,0.00,,---,0.00,VWS V14.01,2013-03-14 03:21:00,
2013-03-13 23:26:00,27.1,21.2,30.40,West,266,6.0,7.0,78,0.00,,---,0.00,VWS V14.01,2013-03-14 03:26:00,
2013-03-13 23:31:00,27.1,21.2,30.40,West,271,4.0,7.0,78,0.00,,---,0.00,VWS V14.01,2013-03-14 03:31:00,
2013-03-13 23:36:00,27.0,21.1,30.40,West,266,6.0,7.0,78,0.00,,---,0.00,VWS V14.01,2013-03-14 03:36:00,
2013-03-13 23:41:00,27.0,21.1,30.40,West,267,5.0,7.0,78,0.00,,---,0.00,VWS V14.01,2013-03-14 03:41:00,
2013-03-13 23:46:00,26.9,21.0,30.40,West,273,4.0,7.0,78,0.00,,---,0.00,VWS V14.01,2013-03-14 03:46:00,
2013-03-13 23:51:00,26.7,20.8,30.40,West,276,4.0,7.0,78,0.00,,---,0.00,VWS V14.01,2013-03-14 03:51:00,
2013-03-13 23:56:00,26.7,21.1,30.40,WNW,284,4.0,7.0,79,0.00,,---,0.00,VWS V14.01,2013-03-14 03:56:00,